Flag for Paraguay Weather past 2 weeks in Ciudad del Este, Paraguay

Now
68 °F

Broken clouds.


Feels Like: 68 °F
Forecast: 67 / 82 °F
Wind: 6 mph from South

Location: Foz Do Iguacu Aeroporto

Current Time: Dec 22, 2014 at 6:17:43 AM

Latest Report: Dec 22, 2014 at 6:00 AM


Visibility: N/A

Pressure: 29.80 "Hg

Humidity: 100%

Dew point: 68 °F

Location of Ciudad del EsteLocation

Historic Weather in Ciudad del Este — Graph

°F

Ciudad del Este temperature yesterday

Maximum temperature yesterday: 86 °F (at 1:00 PM)
Minimum temperature yesterday: 70 °F (at 4:00 PM)
Average temperature yesterday: 77 °F

Past Weeks' High & Low Weather Summary

 TemperatureHumidityPressure
High93 °F (Dec 7, 1:00 PM)100% (Dec 8, 3:00 PM)29.98 "Hg (Dec 8, 3:00 PM)
Low37 °F (Dec 8, 3:00 PM)44% (Dec 14, 3:00 PM)29.56 "Hg (Dec 20, 5:00 PM)
Average78 °F80%29.81 "Hg
* Reported Dec 7 5:00 AM — Dec 22 5:00 AM, Ciudad del Este, Weather by CustomWeather, © 2014

Note: Actual official high and low records may vary slightly from our data, if they occured in-between our weather recording intervals... More about our weather records

Advertising

Ciudad del Este weather history for previous 24 hours

 ConditionsComfort  
Time TempWeatherWind HumidityBarometerVisibility
5:00 AM
Dec 22
70 °FLow clouds.5 mph94%29.80 "HgN/A
4:00 AM70 °FPassing clouds.5 mph94%29.77 "HgN/A
3:10 AM70 °FPassing clouds.2 mph94%29.77 "HgN/A
3:00 AM70 °FPartly cloudy.2 mph94%29.77 "HgN/A
2:00 AM70 °FPassing clouds.2 mph94%29.77 "HgN/A
1:00 AM70 °FPassing clouds.3 mph94%29.77 "HgN/A
12:00 AM70 °FPassing clouds.2 mph94%29.77 "HgN/A
11:00 PM
Dec 21
70 °FPartly cloudy.2 mph94%29.77 "HgN/A
10:00 PM70 °FPartly cloudy.2 mph94%29.74 "HgN/A
9:00 PM70 °FPartly cloudy.3 mph94%29.71 "HgN/A
8:00 PM70 °FPartly cloudy.2 mph94%29.68 "HgN/A
7:00 PM70 °FBroken clouds.2 mph94%29.65 "HgN/A
6:00 PM72 °FPartly sunny.10 mph88%29.59 "HgN/A
5:00 PM70 °FPartly sunny.10 mph94%29.62 "HgN/A
4:00 PM70 °FThunderstorms. Broken clouds.12 mph94%N/A2 mi
3:00 PM81 °FThunderstorms. Partly sunny.17 mph84%29.59 "HgN/A
2:07 PM81 °FRain. Partly sunny.16 mph84%29.56 "Hg2 mi
2:00 PM86 °FHeavy rain. Partly sunny.17 mph70%29.59 "Hg1 mi
1:00 PM86 °FPartly sunny.16 mph70%29.62 "HgN/A
12:00 PM84 °FScattered showers. Partly sunny.20 mph74%29.62 "HgN/A
11:00 AM84 °FPartly sunny.17 mph79%29.65 "HgN/A
10:00 AM82 °FBroken clouds.18 mph79%29.68 "HgN/A
9:00 AM79 °FPartly sunny.9 mph89%29.68 "HgN/A
8:00 AM75 °FOvercast.7 mph94%29.68 "HgN/A
7:00 AM75 °FRain showers. Overcast.12 mph94%N/A1 mi
6:00 AM77 °FLight rain. Overcast.14 mph89%29.65 "Hg2 mi
Weather by CustomWeather, © 2014

See weather overviewHow to use our weather pages